# Tabular Observed and Forecast Hydrograph Information
#
# Location: San Joaquin River - Mendota (SJMC1)
#
# File Generation Time: 09/01/2026 at 07:56 AM PDT
# Data Interval: 1 Hour
#
# Most Recent Date & Time of Maximum Observed: 08/28/2026 at 09:00 AM PDT
# Maximum Observed Stage: 3.76 Feet
# Maximum Observed Flow: 394 cfs
#
# Earliest Date & Time of Maximum Forecast: 09/01/2026 at 08:00 AM PDT
# Maximum Forecast Stage: 3.65 Feet
# Maximum Forecast Flow: 374 cfs
#
# OBSERVED
#
# Date & Time (Local) Stage (Feet) Flow (cfs) Trend Observed Status
# ---------------------------------------------------------------------------------
08/27/2026 07 AM PDT 3.63 371 Normal
08/27/2026 08 AM PDT 3.63 371 0 Normal
08/27/2026 09 AM PDT 3.63 371 0 Normal
08/27/2026 10 AM PDT 3.64 373 + Normal
08/27/2026 11 AM PDT 3.66 376 + Normal
08/27/2026 12 PM PDT 3.68 380 + Normal
08/27/2026 01 PM PDT 3.69 381 + Normal
08/27/2026 02 PM PDT 3.71 385 + Normal
08/27/2026 03 PM PDT 3.72 387 + Normal
08/27/2026 04 PM PDT 3.73 388 + Normal
08/27/2026 05 PM PDT 3.74 390 + Normal
08/27/2026 06 PM PDT 3.74 390 0 Normal
08/27/2026 07 PM PDT 3.74 390 0 Normal
08/27/2026 08 PM PDT 3.74 390 0 Normal
08/27/2026 09 PM PDT 3.75 392 + Normal
08/27/2026 10 PM PDT 3.74 390 - Normal
08/27/2026 11 PM PDT 3.75 392 + Normal
08/28/2026 12 AM PDT 3.75 392 0 Normal
08/28/2026 01 AM PDT 3.75 392 0 Normal
08/28/2026 02 AM PDT 3.75 392 0 Normal
08/28/2026 03 AM PDT 3.75 392 0 Normal
08/28/2026 04 AM PDT 3.75 392 0 Normal
08/28/2026 05 AM PDT 3.75 392 0 Normal
08/28/2026 06 AM PDT 3.75 392 0 Normal
08/28/2026 07 AM PDT 3.75 392 0 Normal
08/28/2026 08 AM PDT 3.75 392 0 Normal
08/28/2026 09 AM PDT 3.76 394 + Normal
08/28/2026 10 AM PDT 3.75 392 - Normal
08/28/2026 11 AM PDT 3.73 388 - Normal
08/28/2026 12 PM PDT 3.70 383 - Normal
08/28/2026 01 PM PDT 3.69 381 - Normal
08/28/2026 02 PM PDT 3.67 378 - Normal
08/28/2026 03 PM PDT 3.66 376 - Normal
08/28/2026 04 PM PDT 3.66 376 0 Normal
08/28/2026 05 PM PDT 3.65 374 - Normal
08/28/2026 06 PM PDT 3.65 374 0 Normal
08/28/2026 07 PM PDT 3.64 373 - Normal
08/28/2026 08 PM PDT 3.63 371 - Normal
08/28/2026 09 PM PDT 3.63 371 0 Normal
08/28/2026 10 PM PDT 3.63 371 0 Normal
08/28/2026 11 PM PDT 3.62 369 - Normal
08/29/2026 12 AM PDT 3.63 371 + Normal
08/29/2026 01 AM PDT 3.62 369 - Normal
08/29/2026 02 AM PDT 3.62 369 0 Normal
08/29/2026 03 AM PDT 3.62 369 0 Normal
08/29/2026 04 AM PDT 3.62 369 0 Normal
08/29/2026 05 AM PDT 3.62 369 0 Normal
08/29/2026 06 AM PDT 3.62 369 0 Normal
08/29/2026 07 AM PDT 3.62 369 0 Normal
08/29/2026 08 AM PDT 3.62 369 0 Normal
08/29/2026 09 AM PDT 3.62 369 0 Normal
08/29/2026 10 AM PDT 3.60 366 - Normal
08/29/2026 11 AM PDT 3.54 355 - Normal
08/29/2026 12 PM PDT 3.49 347 - Normal
08/29/2026 01 PM PDT 3.45 340 - Normal
08/29/2026 02 PM PDT 3.42 335 - Normal
08/29/2026 03 PM PDT 3.41 334 - Normal
08/29/2026 04 PM PDT 3.40 332 - Normal
08/29/2026 05 PM PDT 3.39 330 - Normal
08/29/2026 06 PM PDT 3.38 329 - Normal
08/29/2026 07 PM PDT 3.39 330 + Normal
08/29/2026 08 PM PDT 3.39 330 0 Normal
08/29/2026 09 PM PDT 3.39 330 0 Normal
08/29/2026 10 PM PDT 3.39 330 0 Normal
08/29/2026 11 PM PDT 3.39 330 0 Normal
08/30/2026 12 AM PDT 3.38 329 - Normal
08/30/2026 01 AM PDT 3.38 329 0 Normal
08/30/2026 02 AM PDT 3.38 329 0 Normal
08/30/2026 03 AM PDT 3.38 329 0 Normal
08/30/2026 04 AM PDT 3.37 327 - Normal
08/30/2026 05 AM PDT 3.37 327 0 Normal
08/30/2026 06 AM PDT 3.37 327 0 Normal
08/30/2026 07 AM PDT 3.37 327 0 Normal
08/30/2026 08 AM PDT 3.37 327 0 Normal
08/30/2026 09 AM PDT 3.37 327 0 Normal
08/30/2026 10 AM PDT 3.40 332 + Normal
08/30/2026 11 AM PDT 3.50 349 + Normal
08/30/2026 12 PM PDT 3.57 360 + Normal
08/30/2026 01 PM PDT 3.62 369 + Normal
08/30/2026 02 PM PDT 3.66 376 + Normal
08/30/2026 03 PM PDT 3.69 381 + Normal
08/30/2026 04 PM PDT 3.70 383 + Normal
08/30/2026 05 PM PDT 3.72 387 + Normal
08/30/2026 06 PM PDT 3.73 388 + Normal
08/30/2026 07 PM PDT 3.72 387 - Normal
08/30/2026 08 PM PDT 3.72 387 0 Normal
08/30/2026 09 PM PDT 3.71 385 - Normal
08/30/2026 10 PM PDT 3.72 387 + Normal
08/30/2026 11 PM PDT 3.71 385 - Normal
08/31/2026 12 AM PDT 3.71 385 0 Normal
08/31/2026 01 AM PDT 3.71 385 0 Normal
08/31/2026 02 AM PDT 3.71 385 0 Normal
08/31/2026 03 AM PDT 3.71 385 0 Normal
08/31/2026 04 AM PDT 3.71 385 0 Normal
08/31/2026 05 AM PDT 3.71 385 0 Normal
08/31/2026 06 AM PDT 3.71 385 0 Normal
08/31/2026 07 AM PDT 3.71 385 0 Normal
08/31/2026 08 AM PDT 3.71 385 0 Normal
08/31/2026 09 AM PDT 3.72 387 + Normal
08/31/2026 10 AM PDT 3.72 387 0 Normal
08/31/2026 11 AM PDT 3.71 385 - Normal
08/31/2026 12 PM PDT 3.70 383 - Normal
08/31/2026 01 PM PDT 3.68 380 - Normal
08/31/2026 02 PM PDT 3.67 378 - Normal
08/31/2026 03 PM PDT 3.67 378 0 Normal
08/31/2026 04 PM PDT 3.67 378 0 Normal
08/31/2026 05 PM PDT 3.66 376 - Normal
08/31/2026 06 PM PDT 3.67 378 + Normal
08/31/2026 07 PM PDT 3.67 378 0 Normal
08/31/2026 08 PM PDT 3.67 378 0 Normal
08/31/2026 09 PM PDT 3.66 376 - Normal
08/31/2026 10 PM PDT 3.66 376 0 Normal
08/31/2026 11 PM PDT 3.66 376 0 Normal
09/01/2026 12 AM PDT 3.66 376 0 Normal
09/01/2026 01 AM PDT 3.66 376 0 Normal
09/01/2026 02 AM PDT 3.66 376 0 Normal
09/01/2026 03 AM PDT 3.66 376 0 Normal
09/01/2026 04 AM PDT 3.65 374 - Normal
09/01/2026 05 AM PDT 3.65 374 0 Normal
09/01/2026 06 AM PDT 3.65 374 0 Normal
09/01/2026 07 AM PDT 3.65 374 0 Normal
#
# FORECAST
#
# Date & Time (Local) Stage (Feet) Flow (cfs) Trend Forecast Status
# ---------------------------------------------------------------------------------
09/01/2026 08 AM PDT 3.65 374 Normal
09/01/2026 09 AM PDT 3.65 374 0 Normal
09/01/2026 10 AM PDT 3.65 374 0 Normal
09/01/2026 11 AM PDT 3.65 374 0 Normal
09/01/2026 12 PM PDT 3.64 373 - Normal
09/01/2026 01 PM PDT 3.64 373 0 Normal
09/01/2026 02 PM PDT 3.64 373 0 Normal
09/01/2026 03 PM PDT 3.64 373 0 Normal
09/01/2026 04 PM PDT 3.64 373 0 Normal
09/01/2026 05 PM PDT 3.64 373 0 Normal
09/01/2026 06 PM PDT 3.64 373 0 Normal
09/01/2026 07 PM PDT 3.64 373 0 Normal
09/01/2026 08 PM PDT 3.64 373 0 Normal
09/01/2026 09 PM PDT 3.64 373 0 Normal
09/01/2026 10 PM PDT 3.64 373 0 Normal
09/01/2026 11 PM PDT 3.64 373 0 Normal
09/02/2026 12 AM PDT 3.64 373 0 Normal
09/02/2026 01 AM PDT 3.64 373 0 Normal
09/02/2026 02 AM PDT 3.63 371 - Normal
09/02/2026 03 AM PDT 3.63 371 0 Normal
09/02/2026 04 AM PDT 3.63 371 0 Normal
09/02/2026 05 AM PDT 3.63 371 0 Normal
09/02/2026 06 AM PDT 3.63 371 0 Normal
09/02/2026 07 AM PDT 3.63 371 0 Normal
09/02/2026 08 AM PDT 3.63 371 0 Normal
09/02/2026 09 AM PDT 3.63 371 0 Normal
09/02/2026 10 AM PDT 3.63 371 0 Normal
09/02/2026 11 AM PDT 3.63 371 0 Normal
09/02/2026 12 PM PDT 3.63 371 0 Normal
09/02/2026 01 PM PDT 3.63 371 0 Normal
09/02/2026 02 PM PDT 3.63 371 0 Normal
09/02/2026 03 PM PDT 3.63 371 0 Normal
09/02/2026 04 PM PDT 3.63 371 0 Normal
09/02/2026 05 PM PDT 3.63 371 0 Normal
09/02/2026 06 PM PDT 3.63 371 0 Normal
09/02/2026 07 PM PDT 3.63 371 0 Normal
09/02/2026 08 PM PDT 3.63 371 0 Normal
09/02/2026 09 PM PDT 3.63 371 0 Normal
09/02/2026 10 PM PDT 3.63 371 0 Normal
09/02/2026 11 PM PDT 3.63 371 0 Normal
09/03/2026 12 AM PDT 3.62 369 - Normal
09/03/2026 01 AM PDT 3.62 369 0 Normal
09/03/2026 02 AM PDT 3.62 369 0 Normal
09/03/2026 03 AM PDT 3.62 369 0 Normal
09/03/2026 04 AM PDT 3.62 369 0 Normal
09/03/2026 05 AM PDT 3.62 369 0 Normal
09/03/2026 06 AM PDT 3.62 369 0 Normal
09/03/2026 07 AM PDT 3.62 369 0 Normal
09/03/2026 08 AM PDT 3.62 369 0 Normal
09/03/2026 09 AM PDT 3.62 369 0 Normal
09/03/2026 10 AM PDT 3.62 369 0 Normal
09/03/2026 11 AM PDT 3.62 369 0 Normal
09/03/2026 12 PM PDT 3.62 369 0 Normal
09/03/2026 01 PM PDT 3.62 369 0 Normal
09/03/2026 02 PM PDT 3.62 369 0 Normal
09/03/2026 03 PM PDT 3.62 369 0 Normal
09/03/2026 04 PM PDT 3.62 369 0 Normal
09/03/2026 05 PM PDT 3.62 369 0 Normal
09/03/2026 06 PM PDT 3.62 369 0 Normal
09/03/2026 07 PM PDT 3.62 369 0 Normal
09/03/2026 08 PM PDT 3.62 369 0 Normal
09/03/2026 09 PM PDT 3.62 369 0 Normal
09/03/2026 10 PM PDT 3.62 369 0 Normal
09/03/2026 11 PM PDT 3.61 367 - Normal
09/04/2026 12 AM PDT 3.61 367 0 Normal
09/04/2026 01 AM PDT 3.61 367 0 Normal
09/04/2026 02 AM PDT 3.61 367 0 Normal
09/04/2026 03 AM PDT 3.61 367 0 Normal
09/04/2026 04 AM PDT 3.61 367 0 Normal
09/04/2026 05 AM PDT 3.61 367 0 Normal
09/04/2026 06 AM PDT 3.61 367 0 Normal
09/04/2026 07 AM PDT 3.61 367 0 Normal
09/04/2026 08 AM PDT 3.61 367 0 Normal
09/04/2026 09 AM PDT 3.61 367 0 Normal
09/04/2026 10 AM PDT 3.61 367 0 Normal
09/04/2026 11 AM PDT 3.61 367 0 Normal
09/04/2026 12 PM PDT 3.61 367 0 Normal
09/04/2026 01 PM PDT 3.61 367 0 Normal
09/04/2026 02 PM PDT 3.60 366 - Normal
09/04/2026 03 PM PDT 3.60 366 0 Normal
09/04/2026 04 PM PDT 3.60 366 0 Normal
09/04/2026 05 PM PDT 3.60 366 0 Normal
09/04/2026 06 PM PDT 3.60 366 0 Normal
09/04/2026 07 PM PDT 3.60 366 0 Normal
09/04/2026 08 PM PDT 3.60 366 0 Normal
09/04/2026 09 PM PDT 3.60 366 0 Normal
09/04/2026 10 PM PDT 3.60 366 0 Normal
09/04/2026 11 PM PDT 3.60 366 0 Normal
09/05/2026 12 AM PDT 3.60 366 0 Normal
09/05/2026 01 AM PDT 3.60 366 0 Normal
09/05/2026 02 AM PDT 3.60 366 0 Normal
09/05/2026 03 AM PDT 3.60 366 0 Normal
09/05/2026 04 AM PDT 3.60 366 0 Normal
09/05/2026 05 AM PDT 3.60 366 0 Normal
09/05/2026 06 AM PDT 3.60 366 0 Normal
09/05/2026 07 AM PDT 3.60 366 0 Normal
09/05/2026 08 AM PDT 3.59 364 - Normal
09/05/2026 09 AM PDT 3.59 364 0 Normal
09/05/2026 10 AM PDT 3.59 364 0 Normal
09/05/2026 11 AM PDT 3.59 364 0 Normal
09/05/2026 12 PM PDT 3.59 364 0 Normal
09/05/2026 01 PM PDT 3.59 364 0 Normal
09/05/2026 02 PM PDT 3.59 364 0 Normal
09/05/2026 03 PM PDT 3.59 364 0 Normal
09/05/2026 04 PM PDT 3.59 364 0 Normal
09/05/2026 05 PM PDT 3.59 364 0 Normal
09/05/2026 06 PM PDT 3.59 364 0 Normal
09/05/2026 07 PM PDT 3.59 364 0 Normal
09/05/2026 08 PM PDT 3.59 364 0 Normal
09/05/2026 09 PM PDT 3.59 364 0 Normal
09/05/2026 10 PM PDT 3.59 364 0 Normal
09/05/2026 11 PM PDT 3.59 364 0 Normal
09/06/2026 12 AM PDT 3.59 364 0 Normal
09/06/2026 01 AM PDT 3.59 364 0 Normal
09/06/2026 02 AM PDT 3.59 364 0 Normal
09/06/2026 03 AM PDT 3.58 362 - Normal
09/06/2026 04 AM PDT 3.58 362 0 Normal
09/06/2026 05 AM PDT 3.58 362 0 Normal
#
# NOTE 1: Stages are rounded to the nearest hundredth (.01) of a foot.
# NOTE 2: Flows are rounded to the nearest (1) cfs.
# NOTE 3: Trends are determined using hourly change in unrounded stage and flow.
# NOTE 4: Maximum Values are determined using unrounded stage and flow.
|